Location: Canyam�s
(41.5996°N, 2.4450°E)
Time: 11:12:20
(UTC+00:00)

NOSS 3-2 (A) - Pass Details

Date: 06 June 2020
Orbit: 801 x 1406 km, 63.4° (Epoch: 02 June)

Event Time Altitude Azimuth Distance (km) Brightness Sun altitude
Rises 20:04:53 0° 326° (NW) 3,966 8.4 -7.4°
Reaches altitude 10° 20:07:31 10° 331° (NNW) 3,088 7.4 -7.7°
Maximum altitude 20:14:58 59° 50° (NE) 1,469 4.4 -8.8°
Enters shadow 20:22:52 12° 128° (SE) 3,306 5.6 -9.9°
